Manitowoc, WI

11:59 AM CST on December 12, 2017 (GMT -0600)
Manitowoc County

Weather History for KMTW - October, 2013

Change the Weather History Date:

Wednesday, October 2, 2013

  Actual Average Record
Temperature  
Mean Temperature 60 °F -  
Max Temperature 71 °F 65 °F 81 °F (1992)
Min Temperature 50 °F 45 °F 27 °F (1974)
Degree Days  
Heating Degree Days 5    
Growing Degree Days 10 (Base 50)    
Moisture  
Dew Point 43 °F    
Average Humidity 58    
Maximum Humidity 96    
Minimum Humidity 28    
Precipitation  
Precipitation 0.00 in - - ()
Sea Level Pressure  
Sea Level Pressure 30.11 in    
Wind  
Wind Speed 5 mph (SW)    
Max Wind Speed 13 mph    
Max Gust Speed -    
Visibility 10 miles    
Events      
Averages and records for this station are not official NWS values.
T = Trace of Precipitation, MM = Missing Value Source: NWS Daily Summary

Daily Weather History Graph

Daily Weather History Graph

Search for Another Location

Airport or City:

Trip Planner

Search our weather history database for the weather conditions in past years. The results will help you decide how hot, cold, wet, or windy it might be!

Date:

Astronomy

Oct. 02, 2013 Rise Set
Actual Time 6:49 AM CDT 6:29 PM CDT
Civil Twilight 6:21 AM CDT 6:58 PM CDT
Nautical Twilight 5:47 AM CDT 7:31 PM CDT
Astronomical Twilight 5:13 AM CDT 8:05 PM CDT
Moon 4:18 AM CDT (10/2) 5:07 PM CDT (10/2)
Length of Visible Light 12h 36m
Length of Day
11h 39m
Waning Crescent, 6% of the Moon is Illuminated
Oct 2
Waning Crescent
Oct 4
New
Oct 11
First Quarter
Oct 18
Full
Oct 26
Last Quarter

Hourly Weather History & Observations

Time (CDT) Temp. Dew Point Humidity Pressure Visibility Wind Dir Wind Speed Gust Speed Precip Events Conditions
12:56 AM 59.0 °F 43.0 °F 55% 30.01 in 10.0 mi NW 8.1 mph - N/A   Clear
1:56 AM 57.0 °F 42.1 °F 57% 30.04 in 10.0 mi NW 4.6 mph - N/A   Clear
2:56 AM 55.9 °F 39.9 °F 55% 30.04 in 10.0 mi NW 8.1 mph - N/A   Clear
3:56 AM 55.0 °F 39.9 °F 57% 30.06 in 10.0 mi NW 6.9 mph - N/A   Clear
4:56 AM 50.0 °F 39.9 °F 68% 30.09 in 10.0 mi WNW 4.6 mph - N/A   Clear
5:56 AM 52.0 °F 39.0 °F 61% 30.11 in 10.0 mi Calm Calm - N/A   Clear
6:56 AM 50.0 °F 39.0 °F 66% 30.13 in 10.0 mi Calm Calm - N/A   Clear
7:56 AM 52.0 °F 44.1 °F 74% 30.15 in 10.0 mi Calm Calm - N/A   Clear
8:56 AM 60.1 °F 42.1 °F 51% 30.16 in 10.0 mi WNW 5.8 mph - N/A   Clear
9:56 AM 64.9 °F 41.0 °F 42% 30.17 in 10.0 mi NNW 4.6 mph - N/A   Clear
10:56 AM 68.0 °F 39.0 °F 35% 30.17 in 10.0 mi Calm Calm - N/A   Clear
11:56 AM 70.0 °F 36.0 °F 29% 30.16 in 6.0 mi SE 8.1 mph - N/A   Haze
12:56 PM 70.0 °F 35.1 °F 28% 30.16 in 10.0 mi SE 9.2 mph - N/A   Clear
1:56 PM 69.1 °F 35.1 °F 29% 30.14 in 10.0 mi SSE 10.4 mph - N/A   Clear
2:56 PM 70.0 °F 35.1 °F 28% 30.13 in 10.0 mi SE 12.7 mph - N/A   Clear
3:56 PM 68.0 °F 39.9 °F 36% 30.12 in 10.0 mi SSE 8.1 mph - N/A   Clear
4:56 PM 66.9 °F 45.0 °F 45% 30.12 in 10.0 mi SSE 5.8 mph - N/A   Clear
5:56 PM 64.0 °F 46.9 °F 54% 30.11 in 10.0 mi SSE 4.6 mph - N/A   Clear
6:56 PM 57.9 °F 52.0 °F 81% 30.12 in 10.0 mi Calm Calm - N/A   Clear
7:56 PM 55.9 °F 51.1 °F 84% 30.12 in 10.0 mi Calm Calm - N/A   Clear
8:56 PM 55.0 °F 51.1 °F 86% 30.12 in 10.0 mi Calm Calm - N/A   Clear
9:56 PM 54.0 °F 51.1 °F 90% 30.10 in 10.0 mi Calm Calm - N/A   Clear
10:56 PM 51.1 °F 50.0 °F 96% 30.10 in 10.0 mi Calm Calm - N/A   Clear
11:56 PM 51.1 °F 50.0 °F 96% 30.08 in 10.0 mi Calm Calm - N/A   Clear